Погода в Рассыпном

Россия / Ростовская область     46°06′02″N   41°11′19″E
темп.,
°C
ветер,
м/с
пор.,
м/с
влажн.,
%
обл.,
%
осадки,
мм/ч
давл.,
гПа
погр.,
м
4 марта, чт
чт400:000з49870 0.0 1025235
03:00−1з37930 0.0 1026200
06:00−1зюз34930 0.0 1026111
09:00+2зюз47700 0.0 1025479
12:00+6зюз68470 0.0 10241057
15:00+7зюз710520 0.0 10221308
18:00+4зюз47690 0.0 1021135
21:00+3юз514820 0.0 1021505
5 марта, пт
пт500:00+2зюз615799 0.0 1020553
03:00+1зюз5168038 0.0 1019634
06:000юз5148613 0.0 1019514
09:00+4зюз714666 0.0 1018791
12:00+9зюз812485 0.0 10171077
15:00+11зюз7114636 0.0 10161197
18:00+8юз4106042 0.0 1016237
21:00+5юз476948 0.0 1017181
6 марта, сб
сб600:00+3ююз357517 0.0 101691
03:00+3ююз497343 0.0 1016197
06:00+2юз41667100 0.0 1015432
09:00+8зюз9185498 0.0 1015876
12:00+11зюз101558100 0.0 10141299
15:00+10з81371100 0.3 10141318
18:00+3сз81293100 0.9 1015676
21:00+2сз71086100 2.9 1018789
7 марта, вс
вс700:00+1сз61075100 0.5 1021983
03:00−2сз5106483 0.6 1023721
06:00−2зсз48590 0.0 1026809
09:00−1зсз57470 0.0 10271283
12:00+2з56410 0.0 10261445
15:00+3з57400 0.0 10241450
18:000з48530 0.0 1024264
21:00−1з49620 0.0 1024403
8 марта, пн
пн800:00−2зюз410650 0.0 1023597
03:00−1зюз512541 0.0 1022576
06:00−1юз613600 0.0 1020588
09:00+2зюз812530 0.0 10201059
12:00+5зюз811493 0.0 10191428
15:00+6зюз8115225 0.0 10181676
18:00+3зюз496684 0.0 1017230
21:00+2зюз5127676 0.1 1018382